Hourly Weather Stargard Szczeciński

Today, 12 July, Sunday

Time Temperature Precipitation Wind Pressure Humidity
00:00 +10°C° 0 mm 2 mps 765 mmHg 90%
01:00 +10°C° 0 mm 2 mps 765 mmHg 92%
02:00 +10°C° 0 mm 2 mps 765 mmHg 92%
03:00 +9°C° 0 mm 2 mps 765 mmHg 93%
04:00 +9°C° 0 mm 2 mps 765 mmHg 94%
05:00 +10°C° 0 mm 2 mps 766 mmHg 90%
06:00 +12°C° 0 mm 3 mps 766 mmHg 85%
07:00 +13°C° 0 mm 3 mps 766 mmHg 81%
08:00 +16°C° 0 mm 3 mps 766 mmHg 74%
09:00 +17°C° 0 mm 4 mps 766 mmHg 66%
10:00 +18°C° 0 mm 4 mps 766 mmHg 59%
11:00 +19°C° 0.1 mm 4 mps 766 mmHg 57%
12:00 +19°C° 0.1 mm 5 mps 766 mmHg 54%
13:00 +20°C° 0.1 mm 5 mps 767 mmHg 52%
14:00 +20°C° 0.1 mm 5 mps 766 mmHg 55%
15:00 +19°C° 0.1 mm 5 mps 766 mmHg 57%
16:00 +19°C° 0.1 mm 4 mps 766 mmHg 60%
17:00 +18°C° 0.1 mm 4 mps 766 mmHg 64%
18:00 +18°C° 0.1 mm 3 mps 766 mmHg 68%
19:00 +17°C° 0.1 mm 3 mps 766 mmHg 72%
20:00 +14°C° 0 mm 3 mps 766 mmHg 78%
21:00 +14°C° 0 mm 2 mps 766 mmHg 83%
22:00 +12°C° 0 mm 2 mps 766 mmHg 88%
23:00 +12°C° 0 mm 2 mps 766 mmHg 90%

Tomorrow, 13 July, Monday

Time Temperature Precipitation Wind Pressure Humidity
00:00 +12°C° 0 mm 2 mps 766 mmHg 92%
01:00 +12°C° 0 mm 2 mps 766 mmHg 94%
02:00 +10°C° 0 mm 2 mps 766 mmHg 95%
03:00 +10°C° 0 mm 2 mps 766 mmHg 95%
04:00 +10°C° 0 mm 2 mps 765 mmHg 95%
05:00 +11°C° 0 mm 3 mps 765 mmHg 90%
06:00 +13°C° 0 mm 3 mps 765 mmHg 84%
07:00 +14°C° 0 mm 3 mps 766 mmHg 79%
08:00 +17°C° 0 mm 3 mps 765 mmHg 71%
09:00 +18°C° 0 mm 3 mps 765 mmHg 64%
10:00 +20°C° 0 mm 4 mps 765 mmHg 56%
11:00 +20°C° 0 mm 4 mps 765 mmHg 54%
12:00 +21°C° 0 mm 4 mps 765 mmHg 52%
13:00 +22°C° 0 mm 4 mps 765 mmHg 50%
14:00 +22°C° 0 mm 3 mps 764 mmHg 51%
15:00 +22°C° 0 mm 3 mps 764 mmHg 52%
16:00 +22°C° 0 mm 3 mps 763 mmHg 53%
17:00 +21°C° 0 mm 3 mps 763 mmHg 59%
18:00 +20°C° 0 mm 2 mps 763 mmHg 65%
19:00 +19°C° 0 mm 2 mps 763 mmHg 71%
20:00 +17°C° 0 mm 2 mps 763 mmHg 76%
21:00 +16°C° 0 mm 2 mps 763 mmHg 81%
22:00 +14°C° 0 mm 1 mps 763 mmHg 86%
23:00 +14°C° 0 mm 1 mps 763 mmHg 85%

Day after tomorrow, 14 July, Tuesday

Time Temperature Precipitation Wind Pressure Humidity
00:00 +14°C° 0 mm 1 mps 762 mmHg 84%
01:00 +14°C° 0 mm 1 mps 762 mmHg 82%
02:00 +14°C° 0 mm 1 mps 762 mmHg 84%
03:00 +13°C° 0 mm 1 mps 762 mmHg 86%
04:00 +13°C° 0 mm 1 mps 761 mmHg 88%
05:00 +15°C° 0 mm 1 mps 761 mmHg 84%
06:00 +16°C° 0 mm 2 mps 761 mmHg 79%
07:00 +18°C° 0 mm 2 mps 761 mmHg 74%
08:00 +19°C° 0 mm 2 mps 761 mmHg 68%
09:00 +20°C° 0 mm 3 mps 761 mmHg 62%
10:00 +22°C° 0 mm 3 mps 760 mmHg 56%
11:00 +22°C° 0 mm 3 mps 760 mmHg 54%
12:00 +24°C° 0 mm 3 mps 760 mmHg 52%
13:00 +24°C° 0 mm 3 mps 760 mmHg 51%
14:00 +24°C° 0 mm 3 mps 759 mmHg 51%
15:00 +24°C° 0 mm 2 mps 759 mmHg 51%
16:00 +24°C° 0 mm 2 mps 758 mmHg 51%
17:00 +23°C° 0 mm 2 mps 758 mmHg 55%
18:00 +23°C° 0 mm 2 mps 758 mmHg 60%
19:00 +22°C° 0 mm 1 mps 758 mmHg 65%
20:00 +20°C° 0 mm 2 mps 758 mmHg 67%
21:00 +19°C° 0 mm 2 mps 758 mmHg 69%
22:00 +18°C° 0 mm 2 mps 758 mmHg 72%
23:00 +17°C° 0 mm 3 mps 757 mmHg 73%

15 July, Wednesday

Time Temperature Precipitation Wind Pressure Humidity
00:00 +17°C° 0 mm 3 mps 757 mmHg 75%
01:00 +17°C° 0 mm 3 mps 757 mmHg 76%
02:00 +16°C° 0.1 mm 2 mps 757 mmHg 78%
03:00 +16°C° 0.1 mm 2 mps 757 mmHg 80%
04:00 +16°C° 0.1 mm 2 mps 756 mmHg 82%
05:00 +17°C° 0.3 mm 2 mps 756 mmHg 83%
06:00 +17°C° 0.3 mm 2 mps 756 mmHg 84%
07:00 +18°C° 0.3 mm 2 mps 756 mmHg 85%
08:00 +18°C° 0.6 mm 2 mps 756 mmHg 86%
09:00 +18°C° 0.6 mm 2 mps 756 mmHg 86%
10:00 +18°C° 0.6 mm 3 mps 756 mmHg 86%
11:00 +18°C° 0.2 mm 2 mps 756 mmHg 86%
12:00 +18°C° 0.2 mm 2 mps 755 mmHg 86%
13:00 +18°C° 0.2 mm 2 mps 755 mmHg 85%
14:00 +18°C° 0.9 mm 2 mps 755 mmHg 87%
15:00 +17°C° 0.9 mm 2 mps 755 mmHg 89%
16:00 +17°C° 0.9 mm 2 mps 755 mmHg 90%
17:00 +18°C° 1 mm 1 mps 755 mmHg 91%
18:00 +16°C° 1 mm 1 mps 755 mmHg 92%
19:00 +16°C° 1 mm 1 mps 755 mmHg 92%
20:00 +16°C° 0.6 mm 1 mps 755 mmHg 92%
21:00 +15°C° 0.6 mm 1 mps 755 mmHg 91%
22:00 +15°C° 0.6 mm 1 mps 755 mmHg 91%
23:00 +14°C° 0.1 mm 1 mps 755 mmHg 92%

16 July, Thursday

Time Temperature Precipitation Wind Pressure Humidity
00:00 +14°C° 0.1 mm 2 mps 755 mmHg 92%
01:00 +13°C° 0.1 mm 2 mps 755 mmHg 93%
02:00 +13°C° 0.2 mm 2 mps 755 mmHg 94%
03:00 +12°C° 0.2 mm 3 mps 755 mmHg 95%
04:00 +11°C° 0.2 mm 3 mps 755 mmHg 96%
05:00 +12°C° 0.2 mm 3 mps 755 mmHg 94%
06:00 +13°C° 0.2 mm 4 mps 756 mmHg 93%
07:00 +14°C° 0.2 mm 5 mps 756 mmHg 91%
08:00 +15°C° 0.5 mm 5 mps 756 mmHg 88%
09:00 +16°C° 0.5 mm 5 mps 756 mmHg 84%
10:00 +17°C° 0.5 mm 6 mps 755 mmHg 81%
11:00 +17°C° 0.8 mm 6 mps 755 mmHg 80%
12:00 +17°C° 0.8 mm 6 mps 755 mmHg 79%
13:00 +17°C° 0.8 mm 6 mps 755 mmHg 79%
14:00 +17°C° 0.6 mm 6 mps 755 mmHg 82%
15:00 +16°C° 0.6 mm 6 mps 755 mmHg 86%
16:00 +15°C° 0.6 mm 5 mps 755 mmHg 89%
17:00 +16°C° 0.1 mm 6 mps 755 mmHg 90%
18:00 +16°C° 0.1 mm 6 mps 755 mmHg 90%
19:00 +16°C° 0.1 mm 6 mps 755 mmHg 91%
20:00 +15°C° 0 mm 6 mps 755 mmHg 92%
21:00 +15°C° 0 mm 5 mps 756 mmHg 93%
22:00 +14°C° 0 mm 4 mps 756 mmHg 95%
23:00 +14°C° 0 mm 4 mps 756 mmHg 95%

17 July, Friday

Time Temperature Precipitation Wind Pressure Humidity
00:00 +13°C° 0 mm 4 mps 757 mmHg 95%
01:00 +13°C° 0 mm 3 mps 757 mmHg 95%
02:00 +13°C° 0 mm 3 mps 757 mmHg 95%
03:00 +13°C° 0 mm 3 mps 757 mmHg 95%
04:00 +12°C° 0 mm 3 mps 757 mmHg 95%
05:00 +14°C° 0 mm 3 mps 758 mmHg 92%
06:00 +17°C° 0 mm 4 mps 758 mmHg 88%
07:00 +18°C° 0 mm 4 mps 758 mmHg 84%
08:00 +20°C° 0.2 mm 4 mps 758 mmHg 79%
09:00 +21°C° 0.2 mm 4 mps 758 mmHg 73%
10:00 +22°C° 0.2 mm 4 mps 759 mmHg 67%
11:00 +22°C° 0.3 mm 4 mps 759 mmHg 64%
12:00 +23°C° 0.3 mm 4 mps 759 mmHg 60%
13:00 +25°C° 0.3 mm 4 mps 759 mmHg 56%
14:00 +25°C° 0.2 mm 4 mps 759 mmHg 56%
15:00 +23°C° 0.2 mm 4 mps 759 mmHg 56%
16:00 +23°C° 0.2 mm 4 mps 759 mmHg 56%
17:00 +22°C° 0.1 mm 4 mps 759 mmHg 63%
18:00 +21°C° 0.1 mm 3 mps 759 mmHg 70%
19:00 +19°C° 0.1 mm 3 mps 759 mmHg 77%
20:00 +18°C° 0 mm 3 mps 759 mmHg 83%
21:00 +17°C° 0 mm 2 mps 760 mmHg 88%
22:00 +16°C° 0 mm 2 mps 760 mmHg 93%
23:00 +15°C° 0 mm 2 mps 760 mmHg 93%
Show more